Time,TemperatureF,DewpointF,PressureIn,WindDirection,WindDirectionDegrees,WindSpeedMPH,WindSpeedGustMPH,Humidity,HourlyPrecipIn,Conditions,Clouds,dailyrainin,SoftwareType,DateUTC
2013-06-20 00:02:00,54.1,43.8,30.00,WSW,248,3.1,3.8,68,0.00,,,0.00,pywws,2013-06-19 23:02:00,
2013-06-20 00:13:00,54.0,44.0,30.00,WSW,248,3.1,4.5,69,0.00,,,0.00,pywws,2013-06-19 23:13:00,
2013-06-20 00:21:00,53.8,44.2,29.99,West,270,1.6,3.1,70,0.00,,,0.00,pywws,2013-06-19 23:21:00,
2013-06-20 00:33:00,53.6,44.1,30.00,WSW,248,1.6,2.2,70,0.00,,,0.00,pywws,2013-06-19 23:33:00,
2013-06-20 00:41:00,53.4,43.9,29.99,WSW,248,0.7,2.2,70,0.00,,,0.00,pywws,2013-06-19 23:41:00,
2013-06-20 00:53:00,53.1,43.5,30.00,South,180,0.0,0.7,70,0.00,,,0.00,pywws,2013-06-19 23:53:00,
2013-06-20 01:01:00,52.9,43.7,29.99,West,270,0.7,3.1,71,0.00,,,0.00,pywws,2013-06-20 00:01:00,
2013-06-20 01:13:00,52.9,44.1,29.99,West,270,0.7,3.1,72,0.00,,,0.00,pywws,2013-06-20 00:13:00,
2013-06-20 01:21:00,52.9,44.1,29.99,West,270,3.1,6.0,72,0.00,,,0.00,pywws,2013-06-20 00:21:00,
2013-06-20 01:33:00,52.7,44.3,29.99,South,180,1.6,3.1,73,0.00,,,0.00,pywws,2013-06-20 00:33:00,
2013-06-20 01:41:00,52.3,43.6,29.99,South,180,0.0,0.0,72,0.00,,,0.00,pywws,2013-06-20 00:41:00,
2013-06-20 01:53:00,52.2,43.4,29.99,West,270,0.0,0.0,72,0.00,,,0.00,pywws,2013-06-20 00:53:00,
2013-06-20 02:02:00,51.6,43.3,29.98,WSW,248,0.0,1.6,73,0.00,,,0.00,pywws,2013-06-20 01:02:00,
2013-06-20 02:13:00,51.4,43.1,29.98,West,270,0.7,2.2,73,0.00,,,0.00,pywws,2013-06-20 01:13:00,
2013-06-20 02:21:00,51.1,42.7,29.98,WSW,248,0.0,2.2,73,0.00,,,0.00,pywws,2013-06-20 01:21:00,
2013-06-20 02:33:00,50.9,42.9,29.98,West,270,0.0,0.0,74,0.00,,,0.00,pywws,2013-06-20 01:33:00,
2013-06-20 02:41:00,50.9,42.9,29.98,WSW,248,0.0,2.2,74,0.00,,,0.00,pywws,2013-06-20 01:41:00,
2013-06-20 02:53:00,50.9,43.3,29.97,NW,315,2.2,4.5,75,0.00,,,0.00,pywws,2013-06-20 01:53:00,
2013-06-20 03:01:00,51.3,44.0,29.98,WSW,248,0.0,1.6,76,0.00,,,0.00,pywws,2013-06-20 02:01:00,
2013-06-20 03:13:00,51.4,44.1,29.98,WSW,248,0.0,0.0,76,0.00,,,0.00,pywws,2013-06-20 02:13:00,
2013-06-20 03:21:00,51.6,44.6,29.98,South,180,0.0,0.0,77,0.00,,,0.00,pywws,2013-06-20 02:21:00,
2013-06-20 03:33:00,51.8,44.8,29.98,WSW,248,0.0,1.6,77,0.00,,,0.00,pywws,2013-06-20 02:33:00,
2013-06-20 03:41:00,52.0,45.0,29.98,WSW,248,0.7,2.2,77,0.00,,,0.00,pywws,2013-06-20 02:41:00,
2013-06-20 03:53:00,52.2,45.2,29.97,WSW,248,0.7,2.2,77,0.00,,,0.00,pywws,2013-06-20 02:53:00,
2013-06-20 04:01:00,52.3,45.3,29.97,West,270,0.0,1.6,77,0.00,,,0.00,pywws,2013-06-20 03:01:00,
2013-06-20 04:13:00,52.3,45.3,29.97,West,270,1.6,3.1,77,0.00,,,0.00,pywws,2013-06-20 03:13:00,
2013-06-20 04:22:00,52.5,45.9,29.97,South,180,0.0,0.0,78,0.00,,,0.00,pywws,2013-06-20 03:22:00,
2013-06-20 04:33:00,52.5,45.5,29.96,WSW,248,0.0,0.0,77,0.00,,,0.00,pywws,2013-06-20 03:33:00,
2013-06-20 04:42:00,52.7,45.7,29.97,East,90,0.0,0.0,77,0.00,,,0.00,pywws,2013-06-20 03:42:00,
2013-06-20 04:53:00,52.7,45.7,29.97,ENE,68,0.0,0.0,77,0.00,,,0.00,pywws,2013-06-20 03:53:00,
2013-06-20 05:01:00,52.7,45.7,29.97,NW,315,0.0,0.0,77,0.00,,,0.00,pywws,2013-06-20 04:01:00,
2013-06-20 05:13:00,52.7,45.7,29.97,NW,315,0.0,0.0,77,0.00,,,0.00,pywws,2013-06-20 04:13:00,
2013-06-20 05:21:00,52.5,45.5,29.97,NE,45,0.0,0.0,77,0.00,,,0.00,pywws,2013-06-20 04:21:00,
2013-06-20 05:33:00,52.5,45.5,29.98,SE,135,0.0,0.0,77,0.00,,,0.00,pywws,2013-06-20 04:33:00,
2013-06-20 05:41:00,52.7,46.0,29.98,South,180,0.0,0.0,78,0.00,,,0.00,pywws,2013-06-20 04:41:00,
2013-06-20 05:53:00,52.9,46.2,29.98,North,-999,0.0,0.0,78,0.00,,,0.00,pywws,2013-06-20 04:53:00,
2013-06-20 06:02:00,53.2,46.6,29.98,South,180,0.0,0.0,78,0.00,,,0.00,pywws,2013-06-20 05:02:00,
2013-06-20 06:13:00,53.6,46.9,29.98,ENE,68,0.0,0.0,78,0.00,,,0.00,pywws,2013-06-20 05:13:00,
2013-06-20 06:21:00,54.1,47.8,29.98,East,90,0.0,0.0,79,0.00,,,0.00,pywws,2013-06-20 05:21:00,
2013-06-20 06:33:00,54.5,48.1,29.98,East,90,0.0,0.0,79,0.00,,,0.00,pywws,2013-06-20 05:33:00,
2013-06-20 06:42:00,55.0,48.6,29.98,NE,45,0.0,0.0,79,0.00,,,0.00,pywws,2013-06-20 05:42:00,
2013-06-20 06:53:00,55.4,49.0,29.98,NE,45,0.0,0.0,79,0.00,,,0.00,pywws,2013-06-20 05:53:00,
2013-06-20 07:01:00,55.9,49.5,29.98,East,90,0.0,0.0,79,0.00,,,0.00,pywws,2013-06-20 06:01:00,
2013-06-20 07:13:00,56.3,49.9,29.97,East,90,0.0,0.0,79,0.00,,,0.00,pywws,2013-06-20 06:13:00,
2013-06-20 07:21:00,57.0,50.6,29.97,North,0,0.0,0.0,79,0.00,,,0.00,pywws,2013-06-20 06:21:00,
2013-06-20 07:33:00,57.9,51.4,29.96,SE,135,1.6,2.2,79,0.00,,,0.00,pywws,2013-06-20 06:33:00,
2013-06-20 07:41:00,58.8,51.6,29.96,SE,135,0.0,0.0,77,0.00,,,0.00,pywws,2013-06-20 06:41:00,
2013-06-20 07:53:00,59.7,52.1,29.96,East,90,0.7,3.1,76,0.00,,,0.00,pywws,2013-06-20 06:53:00,
2013-06-20 08:02:00,60.3,51.9,29.96,East,90,1.6,3.1,74,0.00,,,0.00,pywws,2013-06-20 07:02:00,
2013-06-20 08:13:00,60.4,51.7,29.96,SE,135,0.0,0.0,73,0.00,,,0.00,pywws,2013-06-20 07:13:00,
2013-06-20 08:21:00,61.0,51.5,29.96,SE,135,1.6,3.1,71,0.00,,,0.00,pywws,2013-06-20 07:21:00,
2013-06-20 08:33:00,61.3,51.5,29.96,NW,315,0.0,1.6,70,0.00,,,0.00,pywws,2013-06-20 07:33:00,
2013-06-20 08:41:00,61.9,51.2,29.96,East,90,0.0,0.7,68,0.00,,,0.00,pywws,2013-06-20 07:41:00,
2013-06-20 08:51:00,62.6,51.1,29.96,East,90,0.0,2.2,66,0.00,,,0.00,pywws,2013-06-20 07:51:00,
2013-06-20 09:02:00,63.3,50.9,29.96,ENE,68,3.1,4.5,64,0.00,,,0.00,pywws,2013-06-20 08:02:00,
2013-06-20 09:13:00,63.3,50.5,29.95,East,90,2.2,3.8,63,0.00,,,0.00,pywws,2013-06-20 08:13:00,
2013-06-20 09:21:00,63.1,49.9,29.96,NE,45,3.1,5.4,62,0.00,,,0.00,pywws,2013-06-20 08:21:00,
2013-06-20 09:33:00,63.1,50.3,29.96,East,90,3.8,5.4,63,0.00,,,0.00,pywws,2013-06-20 08:33:00,
2013-06-20 09:41:00,63.3,50.1,29.96,East,90,1.6,3.1,62,0.00,,,0.00,pywws,2013-06-20 08:41:00,
2013-06-20 09:53:00,63.5,50.2,29.96,East,90,3.1,6.0,62,0.00,,,0.00,pywws,2013-06-20 08:53:00,
2013-06-20 10:02:00,63.7,50.0,29.95,East,90,2.2,4.5,61,0.00,,,0.00,pywws,2013-06-20 09:02:00,
2013-06-20 10:13:00,64.0,50.3,29.95,East,90,1.6,3.1,61,0.00,,,0.00,pywws,2013-06-20 09:13:00,
2013-06-20 10:21:00,65.1,50.4,29.95,East,90,1.6,4.5,59,0.00,,,0.00,pywws,2013-06-20 09:21:00,
2013-06-20 10:33:00,66.0,50.8,29.94,East,90,3.1,5.4,58,0.00,,,0.00,pywws,2013-06-20 09:33:00,
2013-06-20 10:41:00,67.3,51.5,29.94,SE,135,3.8,6.0,57,0.00,,,0.00,pywws,2013-06-20 09:41:00,
2013-06-20 10:53:00,68.5,51.7,29.93,East,90,4.5,9.2,55,0.00,,,0.00,pywws,2013-06-20 09:53:00,
2013-06-20 11:01:00,69.4,51.0,29.93,ESE,112,7.6,9.8,52,0.00,,,0.00,pywws,2013-06-20 10:01:00,
2013-06-20 11:13:00,69.8,51.4,29.93,NE,45,6.0,9.8,52,0.00,,,0.00,pywws,2013-06-20 10:13:00,
2013-06-20 11:22:00,70.9,51.3,29.93,NE,45,5.4,7.6,50,0.00,,,0.00,pywws,2013-06-20 10:22:00,
2013-06-20 11:33:00,71.2,51.6,29.92,NE,45,5.4,8.3,50,0.00,,,0.00,pywws,2013-06-20 10:33:00,
2013-06-20 11:41:00,71.4,50.7,29.92,East,90,3.8,6.9,48,0.00,,,0.00,pywws,2013-06-20 10:41:00,
2013-06-20 11:53:00,71.2,50.5,29.92,SE,135,5.4,8.3,48,0.00,,,0.00,pywws,2013-06-20 10:53:00,
2013-06-20 12:02:00,71.2,51.6,29.93,East,90,6.9,10.7,50,0.00,,,0.00,pywws,2013-06-20 11:02:00,
2013-06-20 12:13:00,71.1,51.5,29.92,East,90,6.0,8.3,50,0.00,,,0.00,pywws,2013-06-20 11:13:00,
2013-06-20 12:21:00,70.5,52.0,29.92,East,90,6.9,10.7,52,0.00,,,0.00,pywws,2013-06-20 11:21:00,
2013-06-20 12:33:00,70.9,52.9,29.91,East,90,5.4,9.2,53,0.00,,,0.00,pywws,2013-06-20 11:33:00,
2013-06-20 12:42:00,71.8,54.2,29.91,East,90,4.5,8.3,54,0.00,,,0.00,pywws,2013-06-20 11:42:00,
2013-06-20 12:53:00,72.1,53.5,29.91,NE,45,6.9,13.0,52,0.00,,,0.00,pywws,2013-06-20 11:53:00,
2013-06-20 13:01:00,71.8,53.2,29.91,East,90,6.0,9.8,52,0.00,,,0.00,pywws,2013-06-20 12:01:00,
2013-06-20 13:13:00,71.6,53.5,29.90,NE,45,5.4,7.6,53,0.00,,,0.00,pywws,2013-06-20 12:13:00,
2013-06-20 13:22:00,71.6,53.5,29.89,NE,45,5.4,7.6,53,0.00,,,0.00,pywws,2013-06-20 12:22:00,
2013-06-20 13:33:00,72.1,53.5,29.89,East,90,6.0,10.7,52,0.00,,,0.00,pywws,2013-06-20 12:33:00,
2013-06-20 13:42:00,72.1,53.5,29.88,East,90,5.4,9.8,52,0.00,,,0.00,pywws,2013-06-20 12:42:00,
2013-06-20 13:53:00,72.3,53.2,29.88,NE,45,6.0,10.7,51,0.00,,,0.00,pywws,2013-06-20 12:53:00,
2013-06-20 14:02:00,72.1,52.5,29.87,East,90,5.4,9.2,50,0.00,,,0.00,pywws,2013-06-20 13:02:00,
2013-06-20 14:13:00,71.8,52.1,29.86,NE,45,4.5,7.6,50,0.00,,,0.00,pywws,2013-06-20 13:13:00,
2013-06-20 14:22:00,71.1,52.0,29.86,East,90,6.0,11.4,51,0.00,,,0.00,pywws,2013-06-20 13:22:00,
2013-06-20 14:33:00,70.7,51.7,29.85,North,0,6.0,11.4,51,0.00,,,0.00,pywws,2013-06-20 13:33:00,
2013-06-20 14:42:00,70.3,51.9,29.85,East,90,3.8,6.9,52,0.00,,,0.00,pywws,2013-06-20 13:42:00,
2013-06-20 14:53:00,70.0,51.0,29.85,NE,45,6.9,11.4,51,0.00,,,0.00,pywws,2013-06-20 13:53:00,
2013-06-20 15:02:00,69.6,51.2,29.85,NE,45,5.4,8.3,52,0.00,,,0.00,pywws,2013-06-20 14:02:00,
2013-06-20 15:13:00,69.4,51.6,29.84,NNE,22,3.8,6.0,53,0.00,,,0.00,pywws,2013-06-20 14:13:00,
2013-06-20 15:22:00,70.7,53.2,29.84,East,90,5.4,10.7,54,0.00,,,0.00,pywws,2013-06-20 14:22:00,
2013-06-20 15:33:00,71.2,52.7,29.83,East,90,5.4,9.8,52,0.00,,,0.00,pywws,2013-06-20 14:33:00,
2013-06-20 15:42:00,71.4,52.3,29.83,ESE,112,6.0,10.7,51,0.00,,,0.00,pywws,2013-06-20 14:42:00,
2013-06-20 15:53:00,71.2,52.2,29.82,East,90,6.0,11.4,51,0.00,,,0.00,pywws,2013-06-20 14:53:00,
2013-06-20 16:02:00,71.8,53.2,29.82,NE,45,4.5,9.8,52,0.00,,,0.00,pywws,2013-06-20 15:02:00,
2013-06-20 16:13:00,72.3,53.7,29.81,NE,45,6.0,9.8,52,0.00,,,0.00,pywws,2013-06-20 15:13:00,
2013-06-20 16:22:00,72.5,52.8,29.81,SE,135,6.0,10.7,50,0.00,,,0.00,pywws,2013-06-20 15:22:00,
2013-06-20 16:33:00,72.7,53.0,29.81,ENE,68,4.5,9.2,50,0.00,,,0.00,pywws,2013-06-20 15:33:00,
2013-06-20 16:42:00,72.0,51.7,29.81,North,0,5.4,11.4,49,0.00,,,0.00,pywws,2013-06-20 15:42:00,
2013-06-20 16:53:00,71.4,51.8,29.81,NE,45,5.4,7.6,50,0.00,,,0.00,pywws,2013-06-20 15:53:00,
2013-06-20 17:02:00,70.9,52.4,29.80,NE,45,6.9,12.1,52,0.00,,,0.00,pywws,2013-06-20 16:02:00,
2013-06-20 17:13:00,70.3,52.4,29.80,East,90,8.3,11.4,53,0.00,,,0.00,pywws,2013-06-20 16:13:00,
2013-06-20 17:22:00,69.4,52.6,29.80,ENE,68,6.9,10.7,55,0.00,,,0.00,pywws,2013-06-20 16:22:00,
2013-06-20 17:33:00,69.3,52.4,29.80,East,90,3.1,5.4,55,0.00,,,0.00,pywws,2013-06-20 16:33:00,
2013-06-20 17:42:00,69.3,52.9,29.79,ESE,112,4.5,6.9,56,0.00,,,0.00,pywws,2013-06-20 16:42:00,
2013-06-20 17:53:00,69.3,52.9,29.79,East,90,2.2,5.4,56,0.00,,,0.00,pywws,2013-06-20 16:53:00,
2013-06-20 18:02:00,69.3,52.9,29.79,NE,45,0.7,3.1,56,0.00,,,0.00,pywws,2013-06-20 17:02:00,
2013-06-20 18:13:00,69.3,52.9,29.79,ENE,68,3.1,7.6,56,0.00,,,0.00,pywws,2013-06-20 17:13:00,
2013-06-20 18:22:00,69.3,52.9,29.78,East,90,2.2,7.6,56,0.00,,,0.00,pywws,2013-06-20 17:22:00,
2013-06-20 18:33:00,69.4,53.5,29.79,NE,45,5.4,9.8,57,0.00,,,0.00,pywws,2013-06-20 17:33:00,
2013-06-20 18:42:00,69.1,53.2,29.79,NE,45,4.5,6.9,57,0.00,,,0.00,pywws,2013-06-20 17:42:00,
2013-06-20 18:53:00,68.7,52.9,29.79,SE,135,1.6,3.8,57,0.00,,,0.00,pywws,2013-06-20 17:53:00,
2013-06-20 19:02:00,68.4,52.5,29.78,East,90,2.2,4.5,57,0.00,,,0.00,pywws,2013-06-20 18:02:00,
2013-06-20 19:13:00,68.2,52.8,29.78,East,90,3.1,6.0,58,0.00,,,0.00,pywws,2013-06-20 18:13:00,
2013-06-20 19:22:00,67.8,52.5,29.78,NE,45,2.2,5.4,58,0.00,,,0.00,pywws,2013-06-20 18:22:00,
2013-06-20 19:33:00,67.5,52.6,29.78,East,90,1.6,3.1,59,0.00,,,0.00,pywws,2013-06-20 18:33:00,
2013-06-20 19:42:00,66.9,52.1,29.79,East,90,3.8,7.6,59,0.00,,,0.00,pywws,2013-06-20 18:42:00,
2013-06-20 19:53:00,66.4,52.1,29.78,NE,45,3.1,4.5,60,0.00,,,0.00,pywws,2013-06-20 18:53:00,
2013-06-20 20:02:00,66.0,52.2,29.78,East,90,4.5,7.6,61,0.00,,,0.00,pywws,2013-06-20 19:02:00,
2013-06-20 20:13:00,65.8,52.0,29.78,East,90,3.1,4.5,61,0.00,,,0.00,pywws,2013-06-20 19:13:00,
2013-06-20 20:22:00,65.3,51.9,29.78,NE,45,3.1,5.4,62,0.00,,,0.00,pywws,2013-06-20 19:22:00,
2013-06-20 20:33:00,65.1,52.2,29.78,East,90,3.8,6.9,63,0.00,,,0.00,pywws,2013-06-20 19:33:00,
2013-06-20 20:42:00,64.8,51.9,29.78,NE,45,3.8,6.9,63,0.00,,,0.00,pywws,2013-06-20 19:42:00,
2013-06-20 20:53:00,64.4,52.0,29.78,East,90,2.2,6.0,64,0.00,,,0.00,pywws,2013-06-20 19:53:00,
2013-06-20 21:02:00,64.0,52.0,29.78,East,90,3.1,5.4,65,0.00,,,0.00,pywws,2013-06-20 20:02:00,
2013-06-20 21:13:00,63.9,51.9,29.78,NW,315,1.6,3.1,65,0.00,,,0.00,pywws,2013-06-20 20:13:00,
2013-06-20 21:22:00,63.3,51.8,29.79,East,90,2.2,6.0,66,0.00,,,0.00,pywws,2013-06-20 20:22:00,
2013-06-20 21:33:00,63.0,51.4,29.79,NE,45,1.6,3.1,66,0.00,,,0.00,pywws,2013-06-20 20:33:00,
2013-06-20 21:42:00,62.6,51.5,29.80,East,90,3.8,6.0,67,0.00,,,0.00,pywws,2013-06-20 20:42:00,
2013-06-20 21:53:00,62.4,51.7,29.80,North,0,3.1,5.4,68,0.00,,,0.00,pywws,2013-06-20 20:53:00,
2013-06-20 22:02:00,62.4,52.1,29.80,SE,135,3.1,5.4,69,0.00,,,0.00,pywws,2013-06-20 21:02:00,
2013-06-20 22:13:00,62.6,52.7,29.80,East,90,5.4,9.2,70,0.00,,,0.00,pywws,2013-06-20 21:13:00,
2013-06-20 22:21:00,62.8,52.8,29.80,SE,135,3.8,6.0,70,0.00,,,0.00,pywws,2013-06-20 21:21:00,
2013-06-20 22:33:00,62.8,53.2,29.80,SE,135,3.8,5.4,71,0.00,,,0.00,pywws,2013-06-20 21:33:00,
2013-06-20 22:41:00,62.8,53.2,29.80,SE,135,5.4,9.2,71,0.00,,,0.00,pywws,2013-06-20 21:41:00,
2013-06-20 22:53:00,62.8,53.2,29.80,ENE,68,7.6,14.5,71,0.00,,,0.00,pywws,2013-06-20 21:53:00,
2013-06-20 23:01:00,63.0,53.4,29.80,South,180,2.2,3.8,71,0.00,,,0.00,pywws,2013-06-20 22:01:00,
2013-06-20 23:13:00,63.0,53.4,29.79,SE,135,6.0,8.3,71,0.00,,,0.00,pywws,2013-06-20 22:13:00,
2013-06-20 23:21:00,63.0,53.4,29.80,South,180,4.5,7.6,71,0.00,,,0.00,pywws,2013-06-20 22:21:00,
2013-06-20 23:33:00,63.0,53.4,29.79,SE,135,2.2,5.4,71,0.00,,,0.00,pywws,2013-06-20 22:33:00,
2013-06-20 23:41:00,63.0,53.4,29.79,SE,135,2.2,3.8,71,0.00,,,0.00,pywws,2013-06-20 22:41:00,
2013-06-20 23:53:00,62.8,53.2,29.79,SE,135,0.0,0.0,71,0.00,,,0.00,pywws,2013-06-20 22:53:00,